{"data":{"norad_id":58952,"intl_designator":"2024-027X","name":"STARLINK-31293","alt_names":[],"object_type":"PAYLOAD","status":"ACTIVE","operator":null,"country":"US","launch_date":"2024-02-10","launch_site_code":"AFWTR","launch_vehicle":null,"mission":null,"orbit_class":"UNKNOWN","rcs_meters":null,"size_class":null,"mass_kg":null,"dimensions":null,"purposes":["comms"],"wikipedia_slug":null,"has_3d_model":false,"image_url":null,"decayed_at":null,"tle_current":{"epoch":"2026-09-20T22:44:44.526912Z","epoch_age_seconds":117662,"freshness":"FRESH","line1":"1 58952U 24027X   26263.94773758  .00002894  00000+0  10491-3 0  9993","line2":"2 58952  53.1591 121.2185 0001159  76.8442 283.2689 15.31719284147249","mean_motion":15.31719284,"eccentricity":0.0001159,"inclination_deg":53.1591,"raan_deg":121.2185,"arg_perigee_deg":76.8442,"mean_anomaly_deg":283.2689,"bstar":0.00010491,"rev_number":14724,"period_min":94.012004356276,"perigee_km":469.88873304685,"apogee_km":471.47628940955,"semimajor_km":6848.8195112282,"source":"CELESTRAK","updated_at":"2026-09-21T09:00:34.018103Z"}}}